Regional Weather Roundup
Issued by NWS

Home | Current Version | Previous Version | Text Only | Print | Product List | Glossary Off
Versions: 1 2 3 4 5 6 7 8 9 10 11 12 13 14 15 16 17 18 19 20 21 22 23 24 25 26 27 28 29 30 31 32 33 34 35 36 37 38 39 40 41 42 43 44 45 46 47 48 49 50

000
ASUS43 KMPX 040610
RWRMN
WEATHER ROUNDUP FOR MINNESOTA
NATIONAL WEATHER SERVICE TWIN CITIES/CHANHASSEN MN
1200 AM CST WED MAR 04 2015


NOTE: "FAIR" INDICATES FEW OR NO CLOUDS BELOW 12,000 FEET WITH NO
SIGNIFICANT WEATHER AND/OR OBSTRUCTIONS TO VISIBILITY. N/A MEANS
CURRENT SKY AND/OR WEATHER CONDITIONS ARE NOT AVAILABLE.

MNZ060>063-068>070-040700-
   Twin Cities Metro

CITY           SKY/WX    TMP DP  RH WIND       PRES   REMARKS
TWIN CITIES    PTCLDY     6  -3  66 NW15      30.02R WCI -12
6HR MIN TEMP:   6; 6HR MAX TEMP:  18;

ST PAUL        CLEAR      8  -2  63 NW18G24   30.03R WCI -11
CRYSTAL        CLEAR      6  -4  63 W9        30.01R WCI  -8
BLAINE         CLEAR      7   0  72 W10       30.00R WCI  -8
LAKEVILLE      CLEAR      5  -2  72 NW14G21   30.01R WCI -12
EDEN PRAIRIE   CLEAR      6  -4  63 NW16      30.02R WCI -12
6HR MIN TEMP:   6; 6HR MAX TEMP:  17;

SOUTH ST PAUL  CLEAR      9  -2  62 NW12      30.02R WCI  -6
LAKE ELMO      MOCLDY     9   0  66 W12       30.01R WCI  -6
$$
MNZ001>005-007-008-013>017-022>024-027-028-040700-
   Northwest Minnesota

CITY           SKY/WX    TMP DP  RH WIND       PRES   REMARKS
BEMIDJI        CLEAR     -4 -10  78 W9        29.93R WCI -21
HALLOCK        CLEAR     -6 -13  71 W7        29.99S WCI -20
ROSEAU         CLEAR     -6 -11  77 W8        29.94S WCI -21
WARROAD        CLEAR     -8 -11  84 W6        29.92S WCI -21
THIEF RVR FALL CLOUDY    -2  -8  78 W10       29.97S WCI -19
CROOKSTON      CLEAR      0  -8  71 W12       30.03S WCI -18
FOSSTON        FAIR      -6 -13  71 W8        29.97S WCI -21
DETROIT LAKES  CLEAR      0  -6  78 NW14G21   29.99S WCI -19
MOORHEAD       CLEAR      1  -4  78 W13       30.07S WCI -16
PARK RAPIDS    FAIR      -2  -9  72 W13       29.93S WCI -20
MAHNOMEN       FAIR      -3  -9  77 W6        29.99S WCI -15
$$
MNZ006-009>011-018-025>026-040700-
   North Central Minnesota

CITY           SKY/WX    TMP DP  RH WIND       PRES   REMARKS
BAUDETTE       PTCLDY    -5 -11  75 W9        29.89R WCI -22
FLAG ISLAND    CLEAR     -8 -15  71 W9        29.89S WCI -25
INTL FALLS     MOCLDY    -4 -10  75 W7        29.87R WCI -18
6HR MIN TEMP:  -4; 6HR MAX TEMP:   6; 6HR PCP: TRACE;

WASKISH        CLOUDY    -4  -9  77 W9        29.92R WCI -20
BIG FORK       FAIR      -2 -11  65 W5        29.88R WCI -12
LONGVILLE      MOCLDY    -2 -11  65 W12       29.94R WCI -20
GRAND RAPIDS   CLOUDY    -2  -8  78 W8        29.88R WCI -17
CRANE LAKE     PTCLDY    -2  -9  71 W5        29.87R HAZE    WCI -12
ORR            FAIR      -4  -9  77 W9        29.81S WCI -20
COOK           CLEAR     -2  -9  71 W9G16     29.84S WCI -18
WALKER         CLOUDY    -3 -11  69 W9        29.93R WCI -19
$$
MNZ012-019>021-037-040700-
   Northeast Minnesota

CITY           SKY/WX    TMP DP  RH WIND       PRES   REMARKS
DULUTH         FLURRIES   1  -8  66 NW16      29.83R WCI -19
6HR MIN TEMP:   1; 6HR MAX TEMP:  15; 6HR PCP: TRACE;

ELY            CLEAR     -2  -9  71 W13G20    29.79S WCI -21
HIBBING        CLEAR     -2 -12  62 NW12      29.86R WCI -20
EVELETH        PTCLDY     0  -8  71 W13G20    29.85S WCI -18
DULUTH HARBOR  CLEAR      5  -6  61 W13G23    29.94R WCI -12
TWO HARBORS    CLEAR      3  -8  60 W8G17     29.82R WCI -10
SILVER BAY     FAIR       3  -6  66 W5        29.79S WCI  -6
GRAND MARAIS     N/A      6  -3  66 W13G21    29.79R WCI -10
G MARAIS ARPRT PTCLDY    -2 -11  65 W16G28    29.65R WCI -23
$$
MNZ029>031-032-039>041-046>048-054>057-064-040700-
   West Central Minnesota

CITY           SKY/WX    TMP DP  RH WIND       PRES   REMARKS
FERGUS FALLS   CLEAR      0  -9  65 NW13      30.09R WCI -18
WHEATON        CLEAR      0  -9  65 W8        30.11R WCI -15
MORRIS         CLEAR     -2  -9  71 W10       30.06R WCI -19
ALEXANDRIA     CLEAR     -1  -8  72 NW16      30.00S WCI -21
ELBOW LAKE     FAIR      -1  -7  74 NW13      30.04R WCI -19
WADENA         CLEAR     -2  -9  71 NW13G22   29.97S WCI -21
GLENWOOD       CLEAR      0  -8  71 W14       30.02S WCI -19
APPLETON       CLEAR      1  -8  66 W10       30.10R WCI -14
BENSON         CLEAR      0  -8  71 NW12      30.07R WCI -18
ORTONVILLE       N/A      1  -8  66 W9        30.09S WCI -14
MADISON        CLEAR      3  -6  66 NW10      30.10S WCI -12
WILLMAR        FAIR       3  -6  66 NW18      30.05S WCI -17
$$
MNZ033>034-036-042>043-049>051-058-059-040700-
   Central Minnesota

CITY           SKY/WX    TMP DP  RH WIND       PRES   REMARKS
ST CLOUD       CLEAR      2  -6  69 NW15      30.00R WCI -17
6HR MIN TEMP:   2; 6HR MAX TEMP:  13;

SAUK CENTRE    FAIR       0  -6  74 W12G17    30.01R WCI -17
PAYNESVILLE    PTCLDY    -1  -6  77 W12       30.03S WCI -18
AITKIN         LGT SNOW   3  -6  66 NW6       29.93R WCI  -8
PINE RIVER     CLOUDY     0  -6  78 NW6       29.98R WCI -12
BRAINERD       CLEAR      0  -7  72 NW9       29.96R WCI -15
STAPLES        CLEAR     -2  -9  71 W10       29.97S WCI -19
LITTLE FALLS   CLEAR      1  -6  71 W10       30.00R WCI -14
LITCHFIELD     CLEAR      3  -2  78 CALM      30.03R
BUFFALO        CLEAR      4  -5  66 W13G20    30.03R WCI -13
MAPLE LAKE     CLEAR      4  -4  68 W14       30.02R WCI -13
$$
MNZ037-044-045-052-053-040700-
   East Central Minnesota

CITY           SKY/WX    TMP DP  RH WIND       PRES   REMARKS
PRINCETON      CLEAR      5  -4  66 W10       29.99S WCI -10
MORA           CLEAR      5  -6  61 W9        29.98R WCI  -9
CAMBRIDGE      FAIR       7  -6  56 W8        29.97R WCI  -6
RUSH CITY      MOCLDY     2  -6  69 W8        29.98R WCI -11
MOOSE LAKE     CLEAR      3  -8  60 NW8       29.92R WCI -10
HINCKLEY       MOCLDY     3   0  85 W5        29.96R WCI  -6
CLOQUET        CLEAR      0 -11  60 W10G22    29.88R WCI -17
MCGREGOR       FAIR       1  -8  66 W9G16     29.92R WCI -14
$$
MNZ071>073-080-081-089-090-097-098-040700-
   Southwest Minnesota

CITY           SKY/WX    TMP DP  RH WIND       PRES   REMARKS
MONTEVIDEO     FAIR       3  -2  78 N16G22    30.09R WCI -16
GRANITE FALLS  CLEAR      4  -4  68 W15       30.10S WCI -14
CANBY          CLEAR      4  -5  66 NW13      30.10S WCI -13
MARSHALL       CLEAR      1  -8  66 NW10      30.09R WCI -14
REDWOOD FALLS  CLEAR      5  -5  63 NW16G23   30.08R WCI -14
OLIVIA         CLEAR      3  -4  72 NW17      30.06R WCI -17
PIPESTONE      CLEAR      3  -4  72 N12       30.06R WCI -13
WINDOM         CLEAR      7  -2  66 NW17      30.06R WCI -12
WORTHINGTON    PTCLDY     7  -4  61 NW14      30.08R WCI -10
JACKSON        CLEAR     10   0  61 NW18G24   30.06R WCI  -8
TRACY          PTCLDY     6  -3  68 NW16      30.08R WCI -13
SLAYTON        PTCLDY     4  -6  61 NW13      30.06R WCI -12
$$
MNZ065>067-074>077-082>085-091>093-040700-
   South Central Minnesota

CITY           SKY/WX    TMP DP  RH WIND       PRES   REMARKS
MANKATO        FAIR       7   0  72 NW15G21   30.05R WCI -11
NEW ULM        CLEAR      5  -4  66 NW15      30.07R WCI -13
ST JAMES       CLEAR      7   0  72 W9        30.09R WCI  -7
FAIRMONT       CLEAR      9   0  66 NW12      30.05S WCI  -6
GLENCOE        CLEAR      6  -2  68 NW16G22   30.04R WCI -12
FARIBAULT      FAIR       7  -2  66 W12G18    30.03R WCI  -9
OWATONNA       CLEAR      7  -2  66 W13       30.02R WCI  -9
WASECA         CLEAR      7   0  72 NW17G24   30.05R WCI -12
ALBERT LEA     CLEAR      9   0  66 NW9G17    30.02S WCI  -5
$$
MNZ078>079-086>088-094>096-040700-
   Southeast Minnesota

CITY           SKY/WX    TMP DP  RH WIND       PRES   REMARKS
ROCHESTER      CLEAR      6  -1  73 NW18      29.97R WCI -13
6HR MIN TEMP:   6; 6HR MAX TEMP:  19;

RED WING       CLEAR      9  -2  61 NW10      30.00R WCI  -6
STANTON        CLEAR      8   0  69 W13       30.01R WCI  -8
DODGE CENTER   PTCLDY     7   1  78 NW14G21   29.98R WCI -10
WINONA         CLEAR     14   5  67 W13       30.00R WCI   0
AUSTIN         CLEAR      7   0  72 NW16G24   30.00R WCI -11
PRESTON        CLEAR      6   0  75 NW20G25   29.97R WCI -13
$$
ABBREVIATIONS USED IN REMARKS
   TC - TEMPERATURES IN CELSIUS
  WCI - WIND CHILL INDEX
   HX - HEAT INDEX
  VSB - VISIBILITY
$$


USA.gov is the U.S. government's official web portal to all federal, state and local government web resources and services.